Jaipur, India

1:54 AM IST on June 29, 2017 (GMT +0530)
Jaipur

Weather History for VIJP - November, 2013

Change the Weather History Date:

Sunday, November 10, 2013

  Actual Average Record
Temperature  
Mean Temperature 70 °F -  
Max Temperature 79 °F - - ()
Min Temperature 61 °F - - ()
Cooling Degree Days 5    
Growing Degree Days 20 (Base 50)    
Moisture  
Dew Point 53 °F    
Average Humidity 57    
Maximum Humidity 73    
Minimum Humidity 29    
Precipitation  
Precipitation 0.00 in - - ()
Sea Level Pressure  
Sea Level Pressure 30.05 in    
Wind  
Wind Speed 3 mph ()    
Max Wind Speed 7 mph    
Max Gust Speed -    
Visibility 1.0 miles    
Events      
T = Trace of Precipitation, MM = Missing Value Source: Averaged Metar Reports

Daily Weather History Graph

Daily Weather History Graph

Search for Another Location

Airport or City:

Trip Planner

Search our weather history database for the weather conditions in past years. The results will help you decide how hot, cold, wet, or windy it might be!

Date:

Astronomy

Nov. 10, 2013 Rise Set
Actual Time 6:42 AM IST 5:38 PM IST
Civil Twilight 6:18 AM IST 6:02 PM IST
Nautical Twilight 5:50 AM IST 6:30 PM IST
Astronomical Twilight 5:22 AM IST 6:58 PM IST
Moon 12:48 PM IST (11/10) No Moon Set
Length of Visible Light 11h 44m
Length of Day
10h 55m
Waxing Crescent, 50% of the Moon is Illuminated
Nov 10
Waxing Crescent
Nov 17
Full
Nov 26
Last Quarter
Dec 3
New
Dec 9
First Quarter

Hourly Weather History & Observations

Time (IST) Temp. Dew Point Humidity Pressure Visibility Wind Dir Wind Speed Gust Speed Precip Events Conditions
12:00 AM 66.2 °F 57.2 °F 73% 30.06 in 0.7 mi NE 4.6 mph - N/A   Smoke
2:00 AM 66.2 °F 55.4 °F 68% 30.06 in 0.7 mi NE 5.8 mph - N/A   Smoke
2:30 AM 65 °F 55 °F 62% 30.01 in 1 mi NE 4.6 mph - -   Smoke
3:00 AM 66.2 °F 55.4 °F 68% 30.04 in 0.7 mi NE 4.6 mph - N/A   Smoke
4:00 AM 64.4 °F 55.4 °F 73% 30.04 in 0.7 mi NNE 3.5 mph - N/A   Smoke
5:00 AM 64.4 °F 53.6 °F 68% 30.04 in 0.7 mi Variable 3.5 mph - N/A   Smoke
5:30 AM 64 °F 55 °F 64% 30.00 in 1 mi 2.3 mph - -   Smoke
6:00 AM 62.6 °F 53.6 °F 72% 30.04 in 0.8 mi Variable 1.2 mph - N/A   Smoke
7:00 AM 62.6 °F 53.6 °F 72% 30.06 in 0.8 mi Calm Calm - N/A   Smoke
8:00 AM 64.4 °F 53.6 °F 68% 30.09 in 0.7 mi Calm Calm - N/A   Smoke
8:30 AM 65 °F 56 °F 65% 30.06 in 1 mi Calm Calm - -   Smoke
9:00 AM 68.0 °F 55.4 °F 64% 30.12 in 0.7 mi Calm Calm - N/A   Smoke
10:00 AM 69.8 °F 53.6 °F 56% 30.12 in 0.9 mi East 5.8 mph - N/A   Smoke
12:00 PM 75.2 °F 53.6 °F 47% 30.09 in 1.0 mi Variable 1.2 mph - N/A   Smoke
1:00 PM 77.0 °F 51.8 °F 41% 30.06 in 1.2 mi SSW 4.6 mph - N/A   Haze
2:00 PM 77.0 °F 50.0 °F 39% 30.04 in 1.2 mi West 6.9 mph - N/A   Haze
2:30 PM 77 °F 51 °F 29% 29.98 in 1 mi NW 4.6 mph - -   Smoke
3:00 PM 77.0 °F 51.8 °F 41% 30.04 in 1.2 mi Variable 4.6 mph - N/A   Smoke
5:00 PM 75.2 °F 48.2 °F 38% 30.04 in 1.2 mi Variable 3.5 mph - N/A   Smoke
5:30 PM 73 °F 51 °F 34% 29.98 in 1 mi NW 2.3 mph - -   Smoke
6:00 PM 71.6 °F 51.8 °F 50% 30.04 in 1.2 mi Variable 1.2 mph - N/A   Smoke
7:00 PM 69.8 °F 53.6 °F 56% 30.06 in 1.2 mi Calm Calm - N/A   Smoke
8:00 PM 69.8 °F 53.6 °F 56% 30.06 in 1.2 mi Calm Calm - N/A   Smoke
8:30 PM 68 °F 53 °F 50% 30.03 in 1 mi Calm Calm - -   Smoke
9:00 PM 68.0 °F 51.8 °F 56% 30.06 in 1.2 mi Calm Calm - N/A   Smoke
11:00 PM 66.2 °F 51.8 °F 60% 30.06 in 1.2 mi Calm Calm - N/A   Smoke
11:30 PM 64 °F 53 °F 57% 30.04 in 1 mi Calm Calm - -   Smoke